Temperature
30 30 30 30 30 30 29 29 29 29 29 29 29 28 27 25 25 24 23 22 21 20 20 19 18 18 18 18 17 17 17 17 16 16 16 15 15 15 15 15 15 15 14 14
29 29 29 29 29 30 29 29 29 29 29 29 28 27 26 25 24 24 23 22 21 20 19 19 18 18 18 17 17 17 17 17 16 16 16 15 15 15 15 15 14 14 14 14
29 29 29 28 29 29 29 29 29 29 29 28 27 26 25 24 24 24 23 22 20 20 19 19 18 18 18 17 17 17 17 16 16 16 16 15 15 15 15 14 14 14 14 14
28 28 26 29 29 29 29 29 29 29 29 28 27 26 24 24 23 23 22 21 20 20 19 19 18 18 18 17 17 16 16 16 16 16 16 15 15 15 15 14 14 14 13 13
28 27 27 28 28 29 28 28 29 28 28 27 26 25 24 23 23 22 21 21 20 20 20 19 18 18 17 17 17 17 16 16 16 16 15 15 15 15 14 14 14 13 13 13
27 27 27 28 28 28 28 27 27 27 27 26 26 27 26 23 22 21 21 20 20 19 19 18 18 18 17 17 16 16 16 16 16 15 15 15 15 14 14 14 14 13 13 13
27 27 27 28 27 27 27 27 26 26 26 25 25 26 24 22 21 20 20 19 19 19 18 18 18 17 17 16 16 16 16 16 15 15 15 14 14 14 14 13 13 13 13 13
26 26 26 26 26 26 25 24 24 24 24 24 24 23 22 21 20 20 19 19 19 18 18 17 17 17 16 16 16 15 15 15 15 15 14 14 14 14 13 13 13 13 13 12
26 26 24 24 25 23 23 23 23 23 23 23 22 22 21 20 20 19 19 18 18 18 17 17 17 17 16 16 15 15 15 15 15 14 14 13 13 13 13 13 13 13 13 13
24 25 24 23 22 22 22 22 22 22 22 22 21 21 20 20 19 19 18 18 17 17 17 17 17 16 16 16 15 15 14 14 14 14 13 13 13 13 13 13 13 13 13 13
23 23 23 22 21 21 21 21 21 21 21 21 21 20 20 19 19 18 18 17 17 17 17 16 16 16 16 15 15 14 14 14 14 13 13 13 13 13 13 13 13 12 13 12
24 22 23 22 21 20 20 20 20 20 20 20 20 19 19 19 18 17 17 17 16 16 16 16 16 15 15 15 15 14 14 14 14 14 13 13 13 13 13 13 12 12 12 12
21 21 21 20 19 19 19 19 19 19 19 19 19 19 18 18 18 17 17 16 16 16 16 16 15 15 15 15 15 14 14 14 14 14 14 13 13 13 13 13 12 12 12 12
19 19 19 19 19 19 19 19 19 19 19 18 18 18 18 18 17 17 16 16 16 15 15 15 15 15 14 14 14 14 14 14 14 13 13 13 13 13 13 13 12 12 12 12
18 18 19 19 18 18 18 18 18 18 18 18 18 17 17 17 17 16 16 15 15 15 15 15 15 14 14 14 14 14 14 13 13 13 13 13 13 13 13 12 12 12 12 11
18 18 18 18 18 18 18 18 18 18 18 17 17 17 17 16 16 16 15 15 15 15 14 14 14 14 14 14 14 13 13 13 13 13 13 13 13 13 13 12 12 12 12 12
18 18 18 18 18 17 18 18 18 17 17 17 17 16 16 16 16 15 15 15 15 15 14 14 14 14 14 13 13 13 13 13 13 13 13 13 13 12 12 12 12 12 12 11
17 17 17 17 17 17 17 17 17 16 16 16 16 16 15 15 15 15 15 14 14 14 14 14 13 13 13 13 13 13 13 13 13 12 12 12 12 12 12 12 12 12 11 11
16 16 16 16 16 16 16 16 16 16 15 15 15 15 15 15 14 14 14 14 14 14 13 13 13 13 13 13 13 12 13 13 12 12 12 12 12 12 12 12 12 11 11 11
15 15 15 15 15 15 15 15 15 15 15 15 15 14 14 14 14 14 14 14 14 14 13 13 13 13 13 13 13 12 12 12 12 12 12 12 12 12 12 11 11 11 11 11
15 15 15 15 15 15 14 14 14 14 15 14 14 14 14 14 13 13 13 14 13 13 13 13 13 13 12 12 13 12 12 12 12 12 12 12 11 11 11 11 11 11 11 10
14 14 14 14 14 14 14 14 14 14 14 14 14 14 13 13 13 13 13 13 13 13 13 13 13 12 12 12 12 12 12 12 12 12 12 11 11 11 11 11 11 10 10 10
13 13 13 13 13 13 13 13 13 13 13 13 13 13 13 13 13 13 13 13 13 13 12 12 12 12 12 12 12 12 12 12 11 11 11 11 11 11 11 10 10 10 10 9
12 12 13 13 13 13 12 13 13 13 12 12 13 13 13 13 13 13 13 13 12 12 12 12 12 12 12 12 12 12 11 11 11 11 11 11 10 10 10 10 10 9 9 9
12 12 12 12 12 12 12 12 12 12 12 12 12 12 12 12 12 12 12 12 12 12 12 12 12 12 11 11 11 11 11 11 10 10 10 10 10 10 10 9 9 9 9 9
12 12 12 12 12 12 12 12 12 12 12 12 12 12 12 12 12 12 12 12 11 12 11 11 11 11 11 11 11 11 11 10 10 10 10 10 10 9 9 9 9 9 8 8
12 12 12 12 12 12 12 12 12 12 12 12 12 11 11 11 11 11 11 11 11 11 11 11 11 11 11 11 10 10 10 10 10 9 9 9 9 9 9 9 8 8 8 8
Wind_Speed
7 6 6 8 8 9 10 9 9 6 5 3 2 3 4 5 6 5 6 6 6 6 6 6 6 6 5 4 4 4 4 4 3 3 2 1 1 0 0 0 0 1 2 2
8 7 7 9 8 9 9 9 9 8 6 2 1 3 4 5 5 5 5 5 5 5 5 6 6 6 5 5 4 4 4 3 3 3 2 2 1 1 1 0 0 1 0 1
9 8 9 11 8 9 9 8 9 8 4 2 3 4 5 5 4 4 4 4 4 5 5 5 5 5 5 5 5 5 4 3 3 3 3 2 2 1 1 1 1 0 1 1
9 9 12 6 3 6 7 6 6 5 3 3 2 4 5 4 4 3 3 3 4 4 5 5 6 6 5 6 5 5 4 3 3 3 3 3 2 2 1 1 1 1 1 1
9 11 10 6 4 6 7 6 4 4 3 2 3 4 5 4 3 3 3 4 4 4 4 4 5 5 5 5 4 4 4 4 3 3 3 3 2 2 1 1 1 1 1 2
9 11 10 5 3 3 6 7 2 3 3 4 5 5 3 4 4 4 4 4 4 4 5 5 4 5 5 4 3 3 3 3 3 3 3 3 3 2 1 2 2 2 1 2
11 11 8 1 3 5 7 2 1 2 3 5 4 1 3 5 4 4 4 4 4 5 5 4 4 4 4 3 3 2 2 2 2 2 3 3 2 2 2 2 1 2 1 2
10 12 7 3 4 4 2 3 1 1 2 3 2 4 5 4 4 4 4 4 4 5 5 5 4 4 4 3 2 2 2 2 2 2 2 2 2 2 2 2 3 2 2 2
5 3 4 2 1 2 2 1 1 1 1 2 3 4 4 4 4 4 4 4 4 4 5 4 4 4 3 2 2 2 2 2 2 2 2 2 2 3 3 3 3 3 2 3
3 2 1 2 1 1 1 1 1 1 1 2 3 4 4 4 4 3 4 4 4 4 4 4 3 3 2 2 2 2 2 2 2 2 2 2 2 3 3 3 3 3 3 3
4 3 2 2 0 1 1 1 1 1 2 2 3 4 3 3 3 3 3 3 3 3 3 3 3 3 3 3 3 3 2 2 2 2 2 3 3 3 4 3 2 3 3 4
4 2 2 1 1 0 0 0 1 2 2 2 3 3 3 2 2 2 2 3 3 3 2 3 3 3 3 3 3 3 3 3 3 3 2 3 3 3 1 2 2 1 3 4
2 1 1 0 1 1 1 1 1 1 2 2 2 2 2 2 2 2 2 3 3 3 3 3 3 3 2 2 3 4 3 3 3 3 3 3 3 3 3 3 5 5 4 4
1 1 2 2 2 2 1 1 1 1 1 2 2 2 2 2 2 2 2 3 3 3 3 3 2 2 2 2 3 4 4 3 3 3 3 3 3 4 4 3 3 3 5 7
3 4 4 3 2 2 2 3 2 2 1 1 1 1 1 2 1 1 1 1 2 2 2 2 2 2 2 2 3 4 4 3 3 3 3 3 3 3 3 3 3 3 2 4
3 3 3 4 3 4 4 4 4 3 2 2 1 1 1 1 2 2 1 2 3 3 3 3 3 2 3 3 4 4 4 3 3 4 3 3 3 3 3 3 3 3 3 3
4 4 5 4 4 3 3 3 3 2 2 2 1 1 2 2 2 2 2 2 3 3 3 4 3 3 3 4 5 4 4 4 5 5 4 3 3 3 3 3 3 3 3 2
5 4 4 4 4 3 3 2 2 1 1 1 1 1 2 2 2 2 2 2 2 2 3 4 4 4 4 4 4 5 4 3 3 4 4 3 3 3 3 3 4 4 3 2
3 3 3 3 3 3 2 2 1 1 1 1 1 2 2 2 2 2 2 2 3 4 3 3 4 5 5 4 4 5 5 4 4 4 3 3 4 4 3 3 3 4 4 3
3 3 2 2 2 2 2 2 1 1 2 2 2 2 2 2 2 3 3 3 3 2 2 2 4 4 4 4 4 4 4 4 4 3 3 3 4 4 4 4 4 4 4 4
2 2 2 2 1 1 1 1 2 2 2 3 3 3 3 3 3 3 3 3 2 1 2 3 4 3 3 2 4 4 4 4 4 4 4 4 4 4 4 4 4 4 4 4
1 2 2 2 1 1 1 1 2 2 3 3 3 3 3 3 3 3 4 3 2 1 2 3 2 1 0 2 4 4 3 3 3 4 3 3 4 4 4 4 4 4 4 4
2 2 2 1 1 1 1 2 2 3 3 3 3 3 4 3 3 4 4 2 2 2 3 2 2 3 2 4 4 3 3 3 4 4 4 3 4 4 4 4 4 4 4 4
1 1 1 1 1 1 2 2 2 2 3 3 3 3 3 3 3 3 2 2 1 2 2 2 3 3 4 3 3 3 3 3 4 4 4 3 3 3 3 4 4 5 5 5
1 1 1 2 2 2 2 2 2 2 3 2 2 2 2 2 2 2 2 1 2 3 2 3 5 5 3 2 3 3 2 2 3 3 3 3 3 3 3 4 4 4 5 4
2 2 2 2 2 2 2 2 2 2 2 1 1 1 1 1 1 1 1 1 2 1 1 1 2 3 2 2 2 2 2 1 2 4 4 3 4 4 3 4 5 5 4 4
3 2 2 2 2 2 3 3 3 2 2 1 1 1 1 1 1 1 2 1 1 1 1 1 1 1 2 2 1 1 2 2 3 3 3 3 4 4 3 4 4 4 4 4
Wind_Direction
256 262 245 239 237 232 243 260 271 275 274 284 231 189 174 174 168 160 160 164 167 172 167 167 166 170 175 175 173 172 177 181 179 182 182 194 210 214 188 18 20 21 9 358
236 232 237 240 236 233 237 251 259 263 267 312 189 167 166 170 171 171 170 168 165 166 166 168 171 175 174 178 179 178 185 186 183 190 191 195 198 206 199 187 307 26 10 323
242 230 242 238 233 237 239 246 257 260 259 179 181 174 175 170 172 173 167 160 164 168 170 170 173 176 178 177 179 180 184 188 190 195 191 192 196 185 202 201 159 112 300 314
243 233 243 248 233 241 245 247 250 257 245 207 197 181 165 160 161 158 150 151 160 168 166 171 172 173 176 172 176 181 186 190 194 200 198 194 195 190 195 187 177 194 279 300
242 242 240 226 224 226 233 234 243 246 228 193 163 170 157 150 153 149 142 144 160 168 164 166 165 162 166 171 172 183 195 203 207 210 207 201 203 205 199 196 209 235 261 293
237 249 249 223 187 222 239 229 209 232 216 196 195 224 168 145 151 138 129 134 151 157 158 159 157 158 166 172 178 193 199 206 203 206 208 208 204 207 204 217 230 248 286 301
238 246 245 217 151 195 231 236 139 225 217 205 208 294 104 131 139 131 127 130 143 154 154 153 156 159 171 175 188 193 189 194 196 203 208 200 193 203 214 228 246 267 274 268
235 243 239 115 169 215 337 25 152 198 205 205 164 116 126 133 139 137 133 134 140 145 145 151 158 166 179 183 180 177 186 193 190 197 217 186 187 206 218 231 229 239 250 262
239 242 78 110 116 42 14 338 270 213 187 174 168 160 152 147 150 150 146 143 147 147 146 152 156 170 187 174 170 181 182 183 169 176 211 208 213 217 222 232 247 250 256 265
224 190 127 126 94 14 0 327 278 205 161 167 173 163 156 149 152 157 154 152 157 162 161 155 161 176 178 166 178 189 188 183 174 182 202 204 234 241 249 253 255 260 268 274
225 212 194 172 137 24 23 10 121 148 150 164 164 157 148 148 149 156 157 156 161 172 176 173 174 183 175 160 185 199 196 193 198 205 218 224 232 249 256 261 283 281 282 285
240 194 239 226 18 346 269 146 142 148 146 137 141 145 138 138 138 162 170 168 176 186 183 173 175 179 170 178 193 208 213 214 224 225 220 235 229 224 199 238 159 220 300 302
275 225 271 246 233 223 245 205 179 167 160 144 127 131 138 143 157 175 186 190 194 199 189 174 172 176 175 183 199 217 228 225 239 236 229 234 240 244 239 212 204 207 216 240
223 212 221 217 233 247 232 204 175 148 133 134 128 135 147 155 163 183 201 209 207 201 185 169 177 184 187 188 211 234 243 218 234 239 241 241 246 252 255 255 241 229 207 205
227 228 234 232 233 225 212 196 194 181 157 146 136 150 172 185 196 205 207 206 194 192 191 187 195 208 206 214 226 241 247 242 243 257 253 253 254 257 257 260 265 261 240 192
235 226 218 213 216 219 214 212 215 211 197 180 173 190 210 204 197 196 195 183 193 200 203 214 222 224 222 231 236 237 237 230 244 252 250 248 249 257 263 257 258 264 270 276
224 221 216 217 218 220 224 230 229 212 197 197 200 201 203 201 201 204 199 201 207 207 213 221 231 236 236 235 242 249 247 218 210 241 248 251 251 254 261 264 264 265 272 294
239 242 239 231 224 225 222 223 223 210 215 233 226 225 225 221 228 226 221 230 239 236 239 239 238 235 235 237 244 255 251 242 229 238 243 252 259 259 259 259 266 271 276 250
249 247 242 231 226 230 231 226 232 240 244 232 234 235 238 243 242 236 235 233 239 246 247 243 225 238 239 235 242 244 249 245 238 241 247 243 252 258 263 268 275 280 285 291
229 224 220 218 213 219 219 215 214 228 244 250 249 243 245 248 244 235 237 240 252 281 268 244 229 241 242 227 238 248 250 251 250 246 248 250 256 265 270 270 270 278 283 284
195 200 206 200 198 232 249 242 236 243 246 243 249 251 255 252 239 237 243 250 232 260 253 217 228 233 235 229 231 250 249 249 249 249 249 251 253 260 267 274 281 284 286 290
247 232 230 226 236 264 263 254 248 245 248 251 255 259 259 249 239 241 244 260 252 182 240 232 225 143 207 246 244 253 254 253 253 255 255 261 264 265 269 274 279 283 288 291
257 242 236 231 244 258 257 259 253 245 250 257 255 256 258 261 257 250 245 236 236 214 243 251 94 119 200 241 253 256 261 267 270 265 257 257 264 271 273 275 277 281 288 291
251 241 242 223 215 227 255 272 271 267 261 255 245 246 248 246 247 258 270 157 182 220 241 128 141 181 222 239 254 259 266 273 274 272 271 269 268 272 276 279 281 281 283 288
259 254 244 223 228 238 243 245 240 239 247 249 245 238 246 261 278 287 285 235 186 227 239 170 180 208 224 245 246 253 264 286 298 298 292 286 280 276 276 279 283 288 294 296
260 263 259 253 258 252 244 242 243 242 246 259 270 268 272 279 284 283 262 233 221 230 265 240 205 219 246 251 249 250 258 259 265 268 275 275 276 281 282 286 289 290 292 294
254 251 242 247 247 250 249 242 242 244 247 259 279 282 282 276 263 265 263 255 238 244 268 278 277 258 255 251 248 249 251 258 263 266 273 276 278 277 277 278 284 288 291 293
Height
1478 1477 1478 1481 1483 1483 1486 1485 1488 1487 1487 1486 1487 1490 1495 1497 1500 1502 1504 1506 1508 1510 1511 1513 1514 1515 1516 1517 1518 1518 1518 1519 1518 1518 1518 1517 1517 1516 1516 1516 1515 1514 1513 1512
1483 1479 1479 1482 1481 1481 1483 1483 1483 1484 1486 1484 1488 1491 1495 1497 1499 1501 1503 1505 1507 1508 1510 1511 1512 1513 1514 1515 1515 1516 1516 1517 1516 1516 1516 1516 1515 1515 1514 1514 1513 1513 1512 1511
1484 1480 1482 1486 1480 1479 1480 1479 1481 1484 1483 1485 1488 1491 1494 1497 1499 1500 1502 1504 1505 1507 1508 1509 1510 1511 1512 1513 1514 1514 1514 1515 1515 1515 1515 1514 1514 1514 1513 1512 1512 1511 1510 1509
1482 1487 1499 1482 1474 1475 1478 1478 1478 1479 1481 1484 1488 1491 1494 1496 1498 1500 1501 1503 1504 1505 1506 1508 1509 1510 1510 1511 1512 1512 1512 1513 1513 1513 1513 1513 1512 1512 1511 1511 1510 1509 1509 1507
1483 1486 1486 1479 1476 1476 1478 1480 1478 1479 1482 1485 1488 1490 1493 1496 1497 1499 1500 1501 1503 1504 1505 1506 1507 1508 1509 1509 1510 1510 1510 1511 1511 1511 1511 1511 1510 1510 1510 1509 1508 1507 1507 1506
1482 1489 1491 1478 1474 1476 1478 1482 1480 1481 1483 1485 1487 1486 1489 1494 1496 1498 1499 1500 1501 1502 1504 1504 1505 1506 1507 1508 1508 1508 1508 1508 1508 1508 1508 1508 1508 1508 1508 1507 1506 1506 1505 1504
1481 1483 1477 1472 1474 1477 1485 1484 1481 1482 1484 1485 1487 1488 1491 1494 1496 1497 1498 1499 1500 1501 1502 1502 1503 1504 1505 1506 1506 1506 1506 1506 1506 1506 1506 1506 1506 1506 1505 1505 1505 1504 1503 1502
1478 1483 1481 1475 1475 1478 1481 1482 1482 1484 1485 1487 1488 1490 1492 1493 1495 1496 1497 1497 1498 1499 1499 1500 1501 1502 1503 1504 1504 1504 1504 1504 1503 1503 1504 1504 1504 1503 1503 1503 1503 1502 1501 1500
1472 1476 1478 1478 1479 1481 1482 1483 1483 1484 1486 1487 1488 1490 1492 1493 1494 1495 1496 1496 1497 1497 1498 1499 1499 1500 1501 1502 1502 1502 1502 1502 1501 1501 1501 1502 1502 1501 1501 1501 1501 1501 1500 1499
1475 1475 1478 1480 1482 1482 1483 1483 1484 1485 1485 1486 1488 1489 1491 1492 1493 1494 1495 1495 1495 1496 1497 1497 1498 1498 1499 1499 1499 1500 1500 1499 1499 1499 1500 1500 1500 1500 1500 1500 1499 1498 1498 1497
1476 1477 1479 1480 1482 1482 1483 1483 1484 1484 1485 1486 1487 1488 1490 1491 1492 1493 1493 1494 1494 1495 1495 1496 1496 1497 1497 1497 1497 1498 1498 1498 1498 1498 1498 1498 1497 1497 1497 1497 1497 1496 1495 1495
1473 1478 1479 1481 1482 1482 1483 1483 1483 1484 1485 1486 1486 1487 1488 1490 1490 1491 1492 1492 1493 1493 1494 1494 1494 1495 1495 1495 1495 1495 1496 1496 1496 1496 1496 1495 1495 1495 1494 1494 1493 1492 1491 1491
1477 1478 1480 1481 1482 1482 1483 1483 1483 1483 1484 1485 1486 1487 1487 1488 1489 1489 1490 1491 1491 1492 1492 1493 1493 1493 1493 1493 1493 1493 1493 1494 1494 1493 1493 1493 1492 1492 1492 1491 1490 1489 1488 1488
1479 1480 1480 1481 1482 1482 1482 1483 1483 1483 1484 1484 1485 1485 1486 1487 1487 1488 1488 1489 1490 1490 1490 1491 1491 1491 1491 1491 1491 1491 1491 1491 1491 1491 1490 1490 1490 1489 1489 1489 1488 1487 1486 1485
1478 1479 1480 1480 1481 1481 1482 1482 1482 1483 1483 1484 1484 1484 1485 1485 1486 1486 1487 1487 1488 1488 1489 1489 1489 1489 1489 1489 1489 1489 1489 1489 1488 1488 1488 1488 1487 1487 1486 1486 1485 1484 1484 1483
1476 1477 1478 1479 1479 1480 1480 1481 1481 1482 1482 1482 1483 1483 1484 1484 1484 1485 1485 1485 1485 1486 1486 1486 1487 1486 1487 1486 1486 1486 1486 1486 1485 1486 1486 1485 1484 1484 1483 1483 1482 1481 1481 1480
1475 1475 1476 1477 1478 1478 1478 1479 1479 1480 1481 1481 1482 1482 1482 1483 1483 1483 1482 1483 1483 1483 1483 1483 1484 1484 1484 1484 1484 1484 1484 1483 1482 1483 1483 1482 1482 1481 1481 1480 1479 1479 1478 1477
1473 1474 1475 1475 1476 1476 1477 1478 1478 1479 1479 1479 1480 1480 1480 1481 1481 1481 1481 1481 1480 1480 1480 1480 1481 1481 1481 1481 1480 1481 1481 1481 1480 1480 1480 1479 1479 1478 1478 1477 1476 1476 1475 1474
1471 1472 1473 1474 1474 1475 1475 1476 1476 1477 1477 1477 1478 1478 1478 1478 1478 1478 1478 1478 1478 1478 1478 1478 1478 1478 1478 1478 1478 1478 1478 1478 1478 1477 1477 1476 1476 1476 1475 1474 1474 1473 1473 1472
1469 1470 1471 1472 1473 1473 1473 1474 1474 1475 1475 1475 1475 1475 1476 1476 1476 1476 1476 1476 1476 1476 1475 1475 1475 1475 1475 1475 1475 1475 1476 1475 1475 1474 1474 1474 1473 1473 1472 1472 1471 1470 1470 1469
1468 1468 1469 1470 1471 1471 1472 1472 1472 1472 1473 1473 1473 1473 1473 1473 1473 1473 1473 1473 1473 1473 1473 1473 1473 1473 1473 1472 1472 1473 1473 1472 1472 1472 1471 1471 1470 1470 1469 1469 1468 1468 1467 1466
1466 1467 1467 1468 1468 1469 1469 1469 1470 1470 1470 1470 1470 1470 1470 1470 1470 1470 1470 1471 1471 1470 1471 1471 1471 1470 1470 1470 1470 1471 1470 1470 1469 1469 1469 1468 1468 1467 1467 1466 1466 1465 1464 1463
1464 1465 1465 1466 1466 1467 1467 1467 1467 1468 1468 1467 1467 1467 1468 1468 1468 1468 1468 1468 1468 1468 1468 1469 1468 1468 1467 1467 1468 1468 1467 1467 1467 1467 1466 1465 1465 1464 1464 1463 1463 1462 1461 1460
1463 1463 1464 1464 1464 1464 1464 1465 1465 1465 1465 1465 1465 1465 1465 1465 1465 1466 1466 1465 1465 1465 1465 1465 1465 1465 1464 1464 1465 1465 1464 1464 1464 1464 1464 1463 1462 1462 1461 1460 1459 1459 1458 1456
1461 1462 1462 1462 1462 1462 1463 1462 1462 1462 1462 1463 1463 1463 1463 1463 1463 1463 1463 1463 1463 1463 1463 1462 1462 1461 1461 1461 1462 1462 1461 1461 1462 1461 1461 1460 1460 1459 1458 1457 1456 1456 1454 1453
1460 1460 1460 1460 1460 1460 1461 1460 1460 1460 1460 1460 1461 1461 1461 1461 1460 1460 1460 1460 1460 1460 1460 1460 1459 1458 1459 1459 1459 1459 1459 1458 1459 1459 1458 1458 1457 1456 1455 1454 1453 1452 1451 1450
1458 1458 1458 1458 1458 1458 1458 1458 1458 1458 1458 1458 1458 1458 1458 1458 1458 1458 1458 1458 1458 1458 1458 1457 1457 1457 1456 1456 1456 1456 1456 1456 1456 1456 1455 1454 1454 1453 1452 1451 1450 1448 1447 1446